This is the latest recevied weather packets stored in our database for station/object WX4LTG. If no packets are shown the sender has not sent any weather packets the latest 10 day(s).
| Time | Temp. | Humidity | Pressure | Rain* | Wind** | Luminosity | Snow |
|---|---|---|---|---|---|---|---|
| 1777083316 | 28.89° C | 14% | 1005.9 hPa | 0 mm | - | 1 W/m² | - |
| 1777083012 | 28.89° C | 14% | 1006.2 hPa | 0 mm | - | 2 W/m² | - |
| 1777082707 | 28.89° C | 14% | 1006.1 hPa | 0 mm | - | 4 W/m² | - |
| 1777082403 | 28.89° C | 14% | 1006.2 hPa | 0 mm | - | 6 W/m² | - |
| 1777082102 | 28.89° C | 14% | 1006.1 hPa | 0 mm | - | 11 W/m² | - |
| 1777081797 | 29.44° C | 14% | 1006.1 hPa | 0 mm | - | 16 W/m² | - |
| 1777081493 | 29.44° C | 14% | 1005.9 hPa | 0 mm | - | 19 W/m² | - |
| 1777081190 | 29.44° C | 14% | 1006.1 hPa | 0 mm | - | 26 W/m² | - |
| 1777080888 | 29.44° C | 14% | 1006.1 hPa | 0 mm | - | 30 W/m² | - |
| 1777080584 | 29.44° C | 14% | 1006 hPa | 0 mm | - | 27 W/m² | - |
| 1777080279 | 29.44° C | 14% | 1006.1 hPa | 0 mm | - | 36 W/m² | - |
| 1777079979 | 30° C | 14% | 1006.2 hPa | 0 mm | - | 37 W/m² | - |
| 1777079678 | 30° C | 14% | 1006 hPa | 0 mm | - | 48 W/m² | - |
| 1777079374 | 30° C | 14% | 1006 hPa | 0 mm | - | 66 W/m² | - |
| 1777079070 | 30° C | 14% | 1006.2 hPa | 0 mm | - | 82 W/m² | - |
| 1777078766 | 30.56° C | 14% | 1006.2 hPa | 0 mm | - | 87 W/m² | - |
| 1777078463 | 30.56° C | 13% | 1006.4 hPa | 0 mm | - | 95 W/m² | - |
| 1777078163 | 30.56° C | 14% | 1006.1 hPa | 0 mm | - | 110 W/m² | - |
| 1777077858 | 30.56° C | 14% | 1006.3 hPa | 0 mm | - | 134 W/m² | - |
| 1777077555 | 30° C | 14% | 1006.3 hPa | 0 mm | - | 151 W/m² | - |
| 1777077251 | 30.56° C | 14% | 1006.2 hPa | 0 mm | - | 172 W/m² | - |
| 1777076949 | 30.56° C | 13% | 1006.6 hPa | 0 mm | - | 184 W/m² | - |
| 1777076646 | 30.56° C | 13% | 1006.4 hPa | 0 mm | - | 185 W/m² | - |
| 1777076342 | 31.11° C | 13% | 1006.5 hPa | 0 mm | - | 191 W/m² | - |
| 1777076037 | 30.56° C | 13% | 1006.3 hPa | 0 mm | - | 216 W/m² | - |
* Rain latest hour (hover to see other rain measurements)
** Current wind speed in m/s (hover to see current wind gust speed)